EHI
0 0 0 0 0 0 0 0 0 0 0 0 0 0 0 0 0 0 0 0 0 0 0 0 0 0 0 0 0 0 0 0 0 0 0 0 0 0
0 0 0 0 0 0 0 0 0 0 0 0 0 0 0 0 0 0 0 0 0 0 0 0 0 0 0 0 0 0 0 0 0 0 0 0 0 0
0 0 0 0 0 0 0 0 0 0 0 0 0 0 0 0 0 0 0 0 0 0 0 0 0 0 0 0 0 0 0 0 0 0 0 0 0 0
0 0 0 0 0 0 0 0 0 0 0 0 0 0 0 0 0 0 0 0 0 0 0 0 0 0 0 0 0 0 0 0 0 0 0 0 0 0
0 0 0 0 0 0 0 0 0 0 0 0 0 0 0 0 0 0 0 0 0 0 0 0 0 0 0 0 0 0 0 0 0 0 0 0 0 0
0 0 0 0 0 0 0 0 0 0 0 0 0 0 0 0 0 0 0 0 0 0 0 0 0 0 0 0 0 0 0 0 0 0 0 0 0 0
0 0 0 0 0 0 0 0 0 0 0 0 0 0 0 0 0 0 0 0 0 0 0 0 0 0 0 0 0 0 0 0 0 0 0 0 0 0
0 0 0 0 0 0 0 0 0 0 0 0 0 0 0 0 0 0 0 0 0 0 0 0 0 0 0 0 0 0 0 0 0 0 0 0 0 0
0 0 0 0 0 0 0 0 0 0 0 0 0 0 0 0 0 0 0 0 0 0 0 0 0 0 0 0 0 0 0 0 0 0 0 0 0 0
0 0 0 0 0 0 0 0 0 0 0 0 0 0 0 0 0 0 0 0 0 0 0 0 0 0 0 0 0 0 0 0 0 0 0 0 0 0
0 0 0 0 0 0 0 0 0 0 0 0 0 0 0 0 0 0 0 0 0 0 0 0 0 0 0 0 0 0 0 0 0 0 0 0 0 0
0 0 0 0 0 0 0 0 0 0 0 0 0 0 0 0 0 0 0 0 0 0 0 0 0 0 0 0 0 0 0 0 0 0 0 0 0 0
0 0 0 0 0 0 0 0 0 0 0 0 0 0 0 0 0 0 0 0 0 0 0 0 0 0 0 0 0 0 0 0 0 0 0 0 0 0
0 0 0 0 0 0 0 0 0 0 0 0 0 0 0 0 0 0 0 0 0 0 0 0 0 0 0 0 0 0 0 0 0 0 0 0 0 0
0 0 0 0 0 0 0 0 0 0 0 0 0 0 0 0 0 0 0 0 0 0 0 0 0 0 0 0 0 0 0 0 0 0 0 0 0 0
0 0 0 0 0 0 0 0 0 0 0 0 0 0 0 0 0 0 0 0 0 0 0 0 0 0 0 0 0 0 0 0 0 0 0 0 0 0
0 0 0 0 0 0 0 0 0 0 0 0 0 0 0 0 0 0 0 0 0 0 0 0 0 0 0 0 0 0 0 0 0 0 0 0 0 0
0 0 0 0 0 0 0 0 0 0 0 0 0 0 0 0 0 0 0 0 0 0 0 0 0 0 0 0 0 0 0 0 0 0 0 0 0 0
0 0 0 0 0 0 0 0 0 0 0 0 0 0 0 0 0 0 0 0 0 0 0 0 0 0 0 0 0 0 0 0 0 0 0 0 0 0
0 0 0 0 0 0 0 0 0 0 0 0 0 0 0 0 0 0 0 0 0 0 0 0 0 0 0 0 0 0 0 0 0 0 0 0 0 0
0 0 0 0 0 0 0 0 0 0 0 0 0 0 0 0 0 0 0 0 0 0 0 0 0 0 0 0 0 0 0 0 0 0 0 0 0 0
0 0 0 0 0 0 0 0 0 0 0 0 0 0 0 0 0 0 0 0 0 0 0 0 0 0 0 0 0 0 0 0 0 0 0 0 0 0
0 0 0 0 0 0 0 0 0 0 0 0 0 0 0 0 0 0 0 0 0 0 0 0 0 0 0 0 0 0 0 0 0 0 0 0 0 0
Wind_Speed
8 8 8 7 7 7 7 7 10 17 15 8 6 6 6 6 11 9 8 18 24 25 25 25 26 27 28 29 30 31 32 32 32 33 33 33 34 34
7 8 9 7 7 7 7 7 8 12 18 8 6 6 7 9 16 12 9 23 25 26 26 26 26 27 28 29 29 30 31 31 32 33 34 34 33 33
8 9 9 9 7 6 6 7 7 8 16 14 6 6 8 8 9 9 9 10 11 24 27 28 27 27 27 28 29 29 30 31 31 32 33 34 34 33
8 8 9 9 9 7 7 8 8 8 12 18 10 6 8 8 9 10 11 11 8 19 27 28 28 28 28 28 28 28 28 29 29 31 32 33 33 33
9 9 10 10 12 9 10 10 9 11 10 14 15 8 7 8 10 11 12 10 12 16 23 26 27 28 27 27 27 28 27 27 28 29 30 31 31 32
10 10 11 12 13 13 12 12 11 11 11 12 14 11 8 8 8 9 10 8 10 11 15 18 22 26 26 26 26 26 26 26 28 28 28 29 29 29
10 10 12 17 22 19 15 11 10 11 11 12 13 12 10 8 8 8 11 9 9 8 8 10 10 8 10 18 23 24 25 25 26 27 28 28 27 28
10 10 12 16 20 25 27 26 22 15 12 12 13 13 13 10 9 9 10 11 11 5 8 9 7 8 7 7 17 23 24 24 25 25 26 26 26 26
10 10 12 13 20 13 19 25 23 27 26 18 15 15 14 11 11 12 12 13 13 6 6 9 6 9 7 10 21 22 23 23 23 23 23 24 24 24
10 11 13 13 14 17 13 13 13 14 17 14 13 14 14 13 12 14 14 14 13 9 8 11 8 8 8 7 18 22 22 22 22 22 21 21 21 22
10 12 14 13 21 27 18 14 14 13 18 25 26 24 26 27 21 11 10 11 12 8 7 8 7 7 6 7 11 20 22 22 21 21 20 19 19 18
9 10 18 21 25 27 17 13 15 14 12 13 16 18 16 17 23 13 9 11 11 8 5 6 6 5 5 5 6 7 10 16 20 20 19 18 17 9
10 9 9 22 26 27 24 14 18 19 12 11 10 9 8 8 9 9 8 9 10 8 4 4 5 5 5 3 3 5 5 5 6 8 13 16 17 13
10 9 11 24 28 28 22 21 27 22 8 8 8 8 7 7 7 7 8 8 9 9 6 6 5 5 5 5 3 3 4 4 5 5 4 10 13 16
12 21 25 28 27 18 20 25 20 9 7 8 9 8 6 6 5 5 6 7 8 8 7 7 7 6 6 6 4 3 3 3 4 4 4 4 4 4
13 17 24 24 20 19 17 12 7 7 8 8 8 7 5 5 5 5 6 5 6 6 6 8 8 8 7 7 5 4 4 3 3 4 4 3 3 4
15 11 8 8 7 6 6 6 6 6 7 6 7 7 6 6 5 5 5 6 6 6 5 4 6 6 7 6 6 5 5 4 4 4 4 4 4 4
19 9 9 8 8 7 7 7 6 6 6 7 7 6 6 6 6 5 5 6 6 6 5 4 4 4 4 5 9 6 5 5 4 5 5 5 6 4
11 8 8 8 8 7 7 7 7 7 6 6 7 6 6 6 6 6 5 5 6 5 4 4 5 5 6 6 5 10 7 5 5 5 6 6 6 5
6 8 8 8 7 7 7 7 7 6 6 6 6 6 6 6 6 6 5 5 5 4 4 4 5 6 7 5 3 4 11 7 5 6 5 4 4 7
7 7 8 8 7 7 7 7 7 7 7 6 6 6 6 5 6 5 5 8 6 4 5 5 6 8 4 2 3 4 4 11 10 6 5 5 5 5
8 8 8 8 7 7 7 7 7 7 7 6 6 6 6 5 6 6 5 5 5 5 5 4 3 3 4 6 6 5 4 5 10 14 13 11 6 6
8 8 8 8 7 7 7 7 8 7 6 6 6 6 5 5 5 5 5 5 5 5 5 4 3 3 4 5 5 5 6 6 5 6 8 14 19 19
Wind_Direction
254 255 255 255 251 251 250 249 268 283 281 264 257 261 274 282 286 286 273 271 272 270 268 268 270 271 271 270 269 268 266 265 265 264 261 256 250 244
259 261 262 261 257 252 251 252 250 266 279 271 255 254 265 275 282 284 280 284 281 278 275 273 273 273 272 271 269 268 265 263 262 261 260 257 254 249
274 274 273 272 269 265 262 260 258 260 276 282 265 261 261 267 276 276 277 274 273 276 276 275 274 273 274 274 271 268 266 263 261 259 258 257 255 252
284 285 287 290 285 282 278 274 271 267 274 285 284 273 267 268 270 271 275 274 267 274 275 275 274 272 272 272 272 270 268 265 262 260 259 257 255 253
283 285 285 286 284 281 278 277 276 276 272 279 284 279 271 267 270 270 268 268 268 272 273 273 273 273 272 271 271 270 268 266 263 260 259 258 257 255
271 271 274 274 275 276 275 271 271 271 268 271 277 278 273 263 262 268 272 261 264 266 268 268 268 269 269 270 271 271 269 267 264 261 258 256 256 256
270 271 275 280 280 282 280 273 267 267 270 271 274 277 275 270 266 266 272 271 263 255 259 260 261 258 261 267 270 271 270 267 265 262 259 256 254 252
281 282 283 285 285 286 286 287 284 279 277 274 278 277 278 273 270 268 272 274 274 234 246 256 244 248 245 242 256 262 266 267 266 263 261 257 254 251
284 285 288 285 290 282 282 283 284 282 281 278 278 277 278 273 272 274 270 269 270 252 248 262 246 249 242 250 257 259 261 263 265 264 263 260 254 251
279 280 281 281 279 282 276 271 266 269 272 274 268 269 269 267 260 263 267 269 266 255 240 261 253 248 247 238 250 254 258 260 262 262 261 260 257 252
279 280 283 282 284 289 288 282 280 275 277 275 273 275 275 276 274 269 264 269 272 262 226 245 253 249 243 240 244 250 254 256 258 260 259 258 255 251
283 278 283 286 289 292 289 284 284 283 276 275 275 277 277 276 279 272 267 270 273 272 226 227 239 231 250 238 232 236 247 253 255 257 257 256 253 248
288 285 281 291 293 294 294 288 285 288 280 275 273 269 263 257 257 253 248 255 263 264 236 223 234 222 232 251 236 224 219 226 243 255 258 255 250 241
293 290 288 294 295 297 297 292 295 299 292 287 282 276 268 263 258 251 246 245 249 257 252 236 240 231 233 236 236 229 217 213 214 226 230 252 255 248
289 293 297 300 301 300 295 296 298 294 287 286 283 278 269 265 266 265 259 253 253 251 247 238 240 238 232 235 223 205 209 217 209 212 215 220 224 231
292 291 295 296 294 291 293 295 287 276 283 281 281 278 273 267 265 265 269 266 263 261 242 234 233 233 238 236 230 221 200 204 205 207 209 218 217 209
298 292 288 288 281 280 283 283 280 284 287 279 280 281 278 272 269 261 260 262 261 265 259 235 227 229 234 234 233 224 213 212 205 196 201 222 227 217
307 299 297 292 289 289 292 292 287 286 285 284 282 280 280 277 276 268 258 258 260 257 252 236 216 220 226 238 228 226 216 215 210 203 200 216 231 223
306 295 292 292 290 290 289 290 290 287 286 287 286 282 280 277 275 271 262 260 258 255 247 226 213 215 226 237 239 216 214 214 206 209 209 211 224 222
285 287 290 291 291 290 290 290 290 289 286 285 284 281 279 279 277 271 263 256 258 255 249 230 219 217 225 229 228 228 215 211 211 218 218 217 229 235
289 287 287 288 289 288 287 286 286 287 285 285 285 281 276 276 277 272 266 264 261 254 249 241 234 230 218 200 231 237 228 220 219 217 206 210 224 225
286 286 287 284 284 284 283 284 284 283 282 279 278 278 275 270 273 272 265 262 256 252 252 251 230 213 203 220 235 238 239 232 234 238 236 224 212 214
285 285 285 284 282 280 280 281 281 281 279 278 277 276 273 272 271 269 264 258 256 255 253 248 232 218 220 224 233 238 238 235 231 234 240 242 243 246